Location: Ca�n Batista
(41.4099°N, 1.7752°E)
Time: 15:02:18
(UTC+00:00)

Cosmos 2242 Rocket - Pass Details

Date: 03 March 2021
Orbit: 617 x 652 km, 82.5° (Epoch: 21 April)

Event Time Altitude Azimuth Distance (km) Brightness Sun altitude
Rises 19:06:47 0° 354° (N) 2,954 7.2 -15.9°
Reaches altitude 10° 19:09:04 10° 357° (N) 2,035 6.3 -16.3°
Maximum altitude 19:13:34 70° 81° (E) 677 3.5 -17.2°
Drops below altitude 10° 19:17:59 10° 165° (SSE) 1,998 5.9 -18.0°
Enters shadow 19:19:26 - 167° (SSE) 2,582 6.5 -18.3°
